This is the latest recevied weather packets stored in our database for station/object KC5EZZ-2. If no packets are shown the sender has not sent any weather packets the latest 1 day(s).
| Time | Temp. | Humidity | Pressure | Rain* | Wind** | Luminosity | Snow |
|---|---|---|---|---|---|---|---|
| 1836274659 | 27.22° C | - | - | 0 mm | 1.79 m/s, 176° | - | - |
| 1836274508 | 27.22° C | - | - | 0 mm | 2.24 m/s, 180° | - | - |
| 1836274357 | 27.22° C | - | - | 0 mm | 2.24 m/s, 184° | - | - |
| 1836274209 | 27.22° C | - | - | 0 mm | 1.79 m/s, 187° | - | - |
| 1836274057 | 27.78° C | - | - | 0 mm | 1.79 m/s, 177° | - | - |
| 1778047559 | 20.56° C | - | - | 0 mm | 4.02 m/s, 21° | - | - |
| 1778047256 | 21.11° C | - | - | 0 mm | 4.47 m/s, 37° | - | - |
| 1778046957 | 21.11° C | - | - | 0 mm | 5.36 m/s, 31° | - | - |
| 1778046657 | 21.11° C | - | - | 0 mm | 3.58 m/s, 69° | - | - |
| 1778046355 | 21.67° C | - | - | 0 mm | 4.47 m/s, 24° | - | - |
| 1778046055 | 21.67° C | - | - | 0 mm | 3.13 m/s, 37° | - | - |
| 1778045756 | 21.67° C | - | - | 0 mm | 4.47 m/s, 34° | - | - |
| 1778045454 | 22.22° C | - | - | 0 mm | 2.24 m/s, 58° | - | - |
| 1778045154 | 21.67° C | - | - | 0 mm | 1.79 m/s, 70° | - | - |
| 1778044855 | 21.11° C | - | - | 0 mm | 1.34 m/s, 21° | - | - |
| 1778044552 | 21.67° C | - | - | 0 mm | 1.34 m/s, 37° | - | - |
| 1778044253 | 20.56° C | - | - | 0 mm | 0 m/s | - | - |
| 1778043954 | 20.56° C | - | - | 0 mm | 0 m/s | - | - |
| 1778043651 | 20.56° C | - | - | 0 mm | 0.45 m/s, 357° | - | - |
| 1778043352 | 20.56° C | - | - | 0 mm | 0 m/s | - | - |
| 1778043052 | 20.56° C | - | - | 0 mm | 0 m/s | - | - |
| 1778042750 | 20.56° C | - | - | 0 mm | 0.45 m/s, 302° | - | - |
| 1778042451 | 20.56° C | - | - | 0 mm | 1.79 m/s, 326° | - | - |
| 1778042151 | 21.11° C | - | - | 0 mm | 0 m/s | - | - |
| 1778041849 | 21.67° C | - | - | 0 mm | 0 m/s | - | - |
* Rain latest hour (hover to see other rain measurements)
** Current wind speed in m/s (hover to see current wind gust speed)